Location: Aciu?a
(46.2833°N, 22.4500°E)
Time: 12:29:33
(UTC+00:00)

Cosmos 1544 Rocket - Pass Details

Date: 25 October 2021
Orbit: 603 x 632 km, 82.5° (Epoch: 07 December)

Event Time Altitude Azimuth Distance (km) Brightness Sun altitude
Rises 15:59:23 0° 169° (S) 2,911 7.0 -6.3°
Reaches altitude 10° 16:01:42 10° 162° (SSE) 2,008 6.1 -6.7°
Maximum altitude 16:05:53 41° 92° (E) 914 4.0 -7.5°
Drops below altitude 10° 16:10:05 10° 22° (NNE) 2,020 5.9 -8.2°
Sets 16:12:25 0° 16° (NNE) 2,929 6.8 -8.6°
